Year,Month,Day,Hour,Minute,Value (Times are PST for temperature in C)
2013,09,11,00,00,19.50
2013,09,11,00,01,19.50
2013,09,11,00,02,19.60
2013,09,11,00,03,19.60
2013,09,11,00,04,19.70
2013,09,11,00,05,19.80
2013,09,11,00,06,19.80
2013,09,11,00,07,19.80
2013,09,11,00,08,19.90
2013,09,11,00,09,19.90
2013,09,11,00,10,19.90
2013,09,11,00,11,19.90
2013,09,11,00,12,20.00
2013,09,11,00,13,20.00
2013,09,11,00,14,20.00
2013,09,11,00,15,20.00
2013,09,11,00,16,20.10
2013,09,11,00,17,20.10
2013,09,11,00,18,20.10
2013,09,11,00,19,20.10
2013,09,11,00,20,20.10
2013,09,11,00,21,20.10
2013,09,11,00,22,20.20
2013,09,11,00,23,20.20
2013,09,11,00,24,20.20
2013,09,11,00,25,20.20
2013,09,11,00,26,20.20
2013,09,11,00,27,20.20
2013,09,11,00,28,20.20
2013,09,11,00,29,20.20
2013,09,11,00,30,20.20
2013,09,11,00,31,20.20
2013,09,11,00,32,20.20
2013,09,11,00,33,20.20
2013,09,11,00,34,20.20
2013,09,11,00,35,20.20
2013,09,11,00,36,20.20
2013,09,11,00,37,20.20
2013,09,11,00,38,20.20
2013,09,11,00,39,20.20
2013,09,11,00,40,20.20
2013,09,11,00,41,20.20
2013,09,11,00,42,20.20
2013,09,11,00,43,20.20
2013,09,11,00,44,20.20
2013,09,11,00,45,20.10
2013,09,11,00,46,20.10
2013,09,11,00,47,20.10
2013,09,11,00,48,20.10
2013,09,11,00,49,20.10
2013,09,11,00,50,20.10
2013,09,11,00,51,20.00
2013,09,11,00,52,20.00
2013,09,11,00,53,20.00
2013,09,11,00,54,20.00
2013,09,11,00,55,20.00
2013,09,11,00,56,19.90
2013,09,11,00,57,19.90
2013,09,11,00,58,19.90
2013,09,11,00,59,19.90
2013,09,11,01,00,19.90
2013,09,11,01,01,19.90
2013,09,11,01,02,19.90
2013,09,11,01,03,19.90
2013,09,11,01,04,19.90
2013,09,11,01,05,19.90
2013,09,11,01,06,19.90
2013,09,11,01,07,19.90
2013,09,11,01,08,19.90
2013,09,11,01,09,19.90
2013,09,11,01,10,19.90
2013,09,11,01,11,19.80
2013,09,11,01,12,19.80
2013,09,11,01,13,19.90
2013,09,11,01,14,19.90
2013,09,11,01,15,19.90
2013,09,11,01,16,19.90
2013,09,11,01,17,19.90
2013,09,11,01,18,19.90
2013,09,11,01,19,19.90
2013,09,11,01,20,19.90
2013,09,11,01,21,19.90
2013,09,11,01,22,19.90
2013,09,11,01,23,19.80
2013,09,11,01,24,19.80
2013,09,11,01,25,19.80
2013,09,11,01,26,19.80
2013,09,11,01,27,19.80
2013,09,11,01,28,19.80
2013,09,11,01,29,19.80
2013,09,11,01,30,19.80
2013,09,11,01,31,19.80
2013,09,11,01,32,19.80
2013,09,11,01,33,19.80
2013,09,11,01,34,19.70
2013,09,11,01,35,19.70
2013,09,11,01,36,19.70
2013,09,11,01,37,19.70
2013,09,11,01,38,19.70
2013,09,11,01,39,19.70
2013,09,11,01,40,19.70
2013,09,11,01,41,19.70
2013,09,11,01,42,19.70
2013,09,11,01,43,19.70
2013,09,11,01,44,19.70
2013,09,11,01,45,19.60
2013,09,11,01,46,19.60
2013,09,11,01,47,19.60
2013,09,11,01,48,19.60
2013,09,11,01,49,19.60
2013,09,11,01,50,19.60
2013,09,11,01,51,19.60
2013,09,11,01,52,19.60
2013,09,11,01,53,19.60
2013,09,11,01,54,19.60
2013,09,11,01,55,19.60
2013,09,11,01,56,19.60
2013,09,11,01,57,19.60
2013,09,11,01,58,19.60
2013,09,11,01,59,19.60
2013,09,11,02,00,19.50
2013,09,11,02,01,19.50
2013,09,11,02,02,19.50
2013,09,11,02,03,19.50
2013,09,11,02,04,19.50
2013,09,11,02,05,19.50
2013,09,11,02,06,19.50
2013,09,11,02,07,19.50
2013,09,11,02,08,19.50
2013,09,11,02,09,19.50
2013,09,11,02,10,19.50
2013,09,11,02,11,19.50
2013,09,11,02,12,19.50
2013,09,11,02,13,19.50
2013,09,11,02,14,19.50
2013,09,11,02,15,19.50
2013,09,11,02,16,19.50
2013,09,11,02,17,19.50
2013,09,11,02,18,19.40
2013,09,11,02,19,19.40
2013,09,11,02,20,19.40
2013,09,11,02,21,19.40
2013,09,11,02,22,19.40
2013,09,11,02,23,19.30
2013,09,11,02,24,19.30
2013,09,11,02,25,19.30
2013,09,11,02,26,19.30
2013,09,11,02,27,19.30
2013,09,11,02,28,19.30
2013,09,11,02,29,19.30
2013,09,11,02,30,19.30
2013,09,11,02,31,19.30
2013,09,11,02,32,19.30
2013,09,11,02,33,19.30
2013,09,11,02,34,19.30
2013,09,11,02,35,19.30
2013,09,11,02,36,19.30
2013,09,11,02,37,19.30
2013,09,11,02,38,19.30
2013,09,11,02,39,19.30
2013,09,11,02,40,19.30
2013,09,11,02,41,19.30
2013,09,11,02,42,19.30
2013,09,11,02,43,19.30
2013,09,11,02,44,19.30
2013,09,11,02,45,19.30
2013,09,11,02,46,19.20
2013,09,11,02,47,19.20
2013,09,11,02,48,19.20
2013,09,11,02,49,19.20
2013,09,11,02,50,19.20
2013,09,11,02,51,19.10
2013,09,11,02,52,19.10
2013,09,11,02,53,19.10
2013,09,11,02,54,19.10
2013,09,11,02,55,19.10
2013,09,11,02,56,19.10
2013,09,11,02,57,19.10
2013,09,11,02,58,19.10
2013,09,11,02,59,19.10
2013,09,11,03,00,19.10
2013,09,11,03,01,19.10
2013,09,11,03,02,19.10
2013,09,11,03,03,19.10
2013,09,11,03,04,19.10
2013,09,11,03,05,19.10
2013,09,11,03,06,19.10
2013,09,11,03,07,19.10
2013,09,11,03,08,19.10
2013,09,11,03,09,19.10
2013,09,11,03,10,19.10
2013,09,11,03,11,19.10
2013,09,11,03,12,19.10
2013,09,11,03,13,19.10
2013,09,11,03,14,19.10
2013,09,11,03,15,19.10
2013,09,11,03,16,19.10
2013,09,11,03,17,19.10
2013,09,11,03,18,19.10
2013,09,11,03,19,19.10
2013,09,11,03,20,19.10
2013,09,11,03,21,19.10
2013,09,11,03,22,19.10
2013,09,11,03,23,19.10
2013,09,11,03,24,19.10
2013,09,11,03,25,19.10
2013,09,11,03,26,19.10
2013,09,11,03,27,19.10
2013,09,11,03,28,19.10
2013,09,11,03,29,19.10
2013,09,11,03,30,19.10
2013,09,11,03,31,19.10
2013,09,11,03,32,19.00
2013,09,11,03,33,19.00
2013,09,11,03,34,19.00
2013,09,11,03,35,19.00
2013,09,11,03,36,19.00
2013,09,11,03,37,19.00
2013,09,11,03,38,19.00
2013,09,11,03,39,18.90
2013,09,11,03,40,18.90
2013,09,11,03,41,18.90
2013,09,11,03,42,18.90
2013,09,11,03,43,18.90
2013,09,11,03,44,18.90
2013,09,11,03,45,18.90
2013,09,11,03,46,18.90
2013,09,11,03,47,18.80
2013,09,11,03,48,18.80
2013,09,11,03,49,18.80
2013,09,11,03,50,18.80
2013,09,11,03,51,18.80
2013,09,11,03,52,18.80
2013,09,11,03,53,18.70
2013,09,11,03,54,18.70
2013,09,11,03,55,18.70
2013,09,11,03,56,18.70
2013,09,11,03,57,18.70
2013,09,11,03,58,18.70
2013,09,11,03,59,18.70
2013,09,11,04,00,18.70
2013,09,11,04,01,18.70
2013,09,11,04,02,18.70
2013,09,11,04,03,18.70
2013,09,11,04,04,18.70
2013,09,11,04,05,18.70
2013,09,11,04,06,18.70
2013,09,11,04,07,18.70
2013,09,11,04,08,18.70
2013,09,11,04,09,18.70
2013,09,11,04,10,18.70
2013,09,11,04,11,18.70
2013,09,11,04,12,18.70
2013,09,11,04,13,18.70
2013,09,11,04,14,18.70
2013,09,11,04,15,18.70
2013,09,11,04,16,18.70
2013,09,11,04,17,18.70
2013,09,11,04,18,18.60
2013,09,11,04,19,18.60
2013,09,11,04,20,18.60
2013,09,11,04,21,18.60
2013,09,11,04,22,18.50
2013,09,11,04,23,18.50
2013,09,11,04,24,18.50
2013,09,11,04,25,18.50
2013,09,11,04,26,18.40
2013,09,11,04,27,18.40
2013,09,11,04,28,18.40
2013,09,11,04,29,18.40
2013,09,11,04,30,18.40
2013,09,11,04,31,18.40
2013,09,11,04,32,18.30
2013,09,11,04,33,18.30
2013,09,11,04,34,18.30
2013,09,11,04,35,18.30
2013,09,11,04,36,18.30
2013,09,11,04,37,18.30
2013,09,11,04,38,18.30
2013,09,11,04,39,18.20
2013,09,11,04,40,18.20
2013,09,11,04,41,18.20
2013,09,11,04,42,18.20
2013,09,11,04,43,18.20
2013,09,11,04,44,18.20
2013,09,11,04,45,18.10
2013,09,11,04,46,18.10
2013,09,11,04,47,18.10
2013,09,11,04,48,18.10
2013,09,11,04,49,18.10
2013,09,11,04,50,18.10
2013,09,11,04,51,18.10
2013,09,11,04,52,18.10
2013,09,11,04,53,18.10
2013,09,11,04,54,18.10
2013,09,11,04,55,18.20
2013,09,11,04,56,18.20
2013,09,11,04,57,18.30
2013,09,11,04,58,18.30
2013,09,11,04,59,18.30
2013,09,11,05,00,18.30
2013,09,11,05,01,18.30
2013,09,11,05,02,18.30
2013,09,11,05,03,18.40
2013,09,11,05,04,18.30
2013,09,11,05,05,18.30
2013,09,11,05,06,18.30
2013,09,11,05,07,18.40
2013,09,11,05,08,18.40
2013,09,11,05,09,18.40
2013,09,11,05,10,18.40
2013,09,11,05,11,18.50
2013,09,11,05,12,18.50
2013,09,11,05,13,18.50
2013,09,11,05,14,18.50
2013,09,11,05,15,18.60
2013,09,11,05,16,18.60
2013,09,11,05,17,18.60
2013,09,11,05,18,18.60
2013,09,11,05,19,18.60
2013,09,11,05,20,18.60
2013,09,11,05,21,18.60
2013,09,11,05,22,18.60
2013,09,11,05,23,18.60
2013,09,11,05,24,18.60
2013,09,11,05,25,18.60
2013,09,11,05,26,18.60
2013,09,11,05,27,18.60
2013,09,11,05,28,18.60
2013,09,11,05,29,18.60
2013,09,11,05,30,18.60
2013,09,11,05,31,18.50
2013,09,11,05,32,18.50
2013,09,11,05,33,18.50
2013,09,11,05,34,18.40
2013,09,11,05,35,18.40
2013,09,11,05,36,18.40
2013,09,11,05,37,18.40
2013,09,11,05,38,18.40
2013,09,11,05,39,18.30
2013,09,11,05,40,18.30
2013,09,11,05,41,18.30
2013,09,11,05,42,18.30
2013,09,11,05,43,18.30
2013,09,11,05,44,18.30
2013,09,11,05,45,18.20
2013,09,11,05,46,18.20
2013,09,11,05,47,18.20
2013,09,11,05,48,18.20
2013,09,11,05,49,18.20
2013,09,11,05,50,18.20
2013,09,11,05,51,18.20
2013,09,11,05,52,18.10
2013,09,11,05,53,18.10
2013,09,11,05,54,18.10
2013,09,11,05,55,18.10
2013,09,11,05,56,18.20
2013,09,11,05,57,18.10
2013,09,11,05,58,18.10
2013,09,11,05,59,18.10
2013,09,11,06,00,18.10
2013,09,11,06,01,18.10
2013,09,11,06,02,18.10
2013,09,11,06,03,18.10
2013,09,11,06,04,18.10
2013,09,11,06,05,18.10
2013,09,11,06,06,18.10
2013,09,11,06,07,18.10
2013,09,11,06,08,18.10
2013,09,11,06,09,18.20
2013,09,11,06,10,18.20
2013,09,11,06,11,18.20
2013,09,11,06,12,18.20
2013,09,11,06,13,18.20
2013,09,11,06,14,18.20
2013,09,11,06,15,18.30
2013,09,11,06,16,18.30
2013,09,11,06,17,18.30
2013,09,11,06,18,18.30
2013,09,11,06,19,18.30
2013,09,11,06,20,18.30
2013,09,11,06,21,18.40
2013,09,11,06,22,18.40
2013,09,11,06,23,18.40
2013,09,11,06,24,18.40
2013,09,11,06,25,18.40
2013,09,11,06,26,18.40
2013,09,11,06,27,18.50
2013,09,11,06,28,18.50
2013,09,11,06,29,18.50
2013,09,11,06,30,18.50
2013,09,11,06,31,18.50
2013,09,11,06,32,18.50
2013,09,11,06,33,18.50
2013,09,11,06,34,18.50
2013,09,11,06,35,18.50
2013,09,11,06,36,18.50
2013,09,11,06,37,18.50
2013,09,11,06,38,18.50
2013,09,11,06,39,18.50
2013,09,11,06,40,18.40
2013,09,11,06,41,18.40
2013,09,11,06,42,18.50
2013,09,11,06,43,18.50
2013,09,11,06,44,18.50
2013,09,11,06,45,18.50
2013,09,11,06,46,18.60
2013,09,11,06,47,18.60
2013,09,11,06,48,18.60
2013,09,11,06,49,18.60
2013,09,11,06,50,18.70
2013,09,11,06,51,18.70
2013,09,11,06,52,18.70
2013,09,11,06,53,18.70
2013,09,11,06,54,18.70
2013,09,11,06,55,18.80
2013,09,11,06,56,18.80
2013,09,11,06,57,18.80
2013,09,11,06,58,18.80
2013,09,11,06,59,18.80
2013,09,11,07,00,18.80
2013,09,11,07,01,18.70
2013,09,11,07,02,18.70
2013,09,11,07,03,18.70
2013,09,11,07,04,18.70
2013,09,11,07,05,18.70
2013,09,11,07,06,18.70
2013,09,11,07,07,18.70
2013,09,11,07,08,18.70
2013,09,11,07,09,18.70
2013,09,11,07,10,18.70
2013,09,11,07,11,18.70
2013,09,11,07,12,18.70
2013,09,11,07,13,18.70
2013,09,11,07,14,18.70
2013,09,11,07,15,18.70
2013,09,11,07,16,18.70
2013,09,11,07,17,18.70
2013,09,11,07,18,18.70
2013,09,11,07,19,18.70
2013,09,11,07,20,18.70
2013,09,11,07,21,18.70
2013,09,11,07,22,18.70
2013,09,11,07,23,18.70
2013,09,11,07,24,18.70
2013,09,11,07,25,18.80
2013,09,11,07,26,18.80
2013,09,11,07,27,18.80
2013,09,11,07,28,18.80
2013,09,11,07,29,18.80
2013,09,11,07,30,18.90
2013,09,11,07,31,18.90
2013,09,11,07,32,18.90
2013,09,11,07,33,19.00
2013,09,11,07,34,19.00
2013,09,11,07,35,19.10
2013,09,11,07,36,19.10
2013,09,11,07,37,19.10
2013,09,11,07,38,19.10
2013,09,11,07,39,19.10
2013,09,11,07,40,19.10
2013,09,11,07,41,19.10
2013,09,11,07,42,19.10
2013,09,11,07,43,19.20
2013,09,11,07,44,19.20
2013,09,11,07,45,19.20
2013,09,11,07,46,19.20
2013,09,11,07,47,19.30
2013,09,11,07,48,19.30
2013,09,11,07,49,19.30
2013,09,11,07,50,19.30
2013,09,11,07,51,19.40
2013,09,11,07,52,19.40
2013,09,11,07,53,19.40
2013,09,11,07,54,19.40
2013,09,11,07,55,19.50
2013,09,11,07,56,19.50
2013,09,11,07,57,19.50
2013,09,11,07,58,19.60
2013,09,11,07,59,19.60
2013,09,11,08,00,19.60
2013,09,11,08,01,19.70
2013,09,11,08,02,19.70
2013,09,11,08,03,19.70
2013,09,11,08,04,19.80
2013,09,11,08,05,19.80
2013,09,11,08,06,19.80
2013,09,11,08,07,19.90
2013,09,11,08,08,19.90
2013,09,11,08,09,19.90
2013,09,11,08,10,20.00
2013,09,11,08,11,20.00
2013,09,11,08,12,20.10
2013,09,11,08,13,20.10
2013,09,11,08,14,20.20
2013,09,11,08,15,20.20
2013,09,11,08,16,20.20
2013,09,11,08,17,20.30
2013,09,11,08,18,20.30
2013,09,11,08,19,20.30
2013,09,11,08,20,20.40
2013,09,11,08,21,20.40
2013,09,11,08,22,20.40
2013,09,11,08,23,20.50
2013,09,11,08,24,20.50
2013,09,11,08,25,20.60
2013,09,11,08,26,20.70
2013,09,11,08,27,20.70
2013,09,11,08,28,20.80
2013,09,11,08,29,20.80
2013,09,11,08,30,20.80
2013,09,11,08,31,20.80
2013,09,11,08,32,20.90
2013,09,11,08,33,20.90
2013,09,11,08,34,20.90
2013,09,11,08,35,20.90
2013,09,11,08,36,20.90
2013,09,11,08,37,21.00
2013,09,11,08,38,21.00
2013,09,11,08,39,21.00
2013,09,11,08,40,21.00
2013,09,11,08,41,21.00
2013,09,11,08,42,21.00
2013,09,11,08,43,21.00
2013,09,11,08,44,21.00
2013,09,11,08,45,21.00
2013,09,11,08,46,21.10
2013,09,11,08,47,21.10
2013,09,11,08,48,21.10
2013,09,11,08,49,21.10
2013,09,11,08,50,21.10
2013,09,11,08,51,21.20
2013,09,11,08,52,21.20
2013,09,11,08,53,21.20
2013,09,11,08,54,21.30
2013,09,11,08,55,21.30
2013,09,11,08,56,21.30
2013,09,11,08,57,21.40
2013,09,11,08,58,21.40
2013,09,11,08,59,21.50
2013,09,11,09,00,21.50
2013,09,11,09,01,21.60
2013,09,11,09,02,21.60
2013,09,11,09,03,21.60
2013,09,11,09,04,21.60
2013,09,11,09,05,21.60
2013,09,11,09,06,21.70
2013,09,11,09,07,21.70
2013,09,11,09,08,21.70
2013,09,11,09,09,21.70
2013,09,11,09,10,21.80
2013,09,11,09,11,21.80
2013,09,11,09,12,21.80
2013,09,11,09,13,21.90
2013,09,11,09,14,22.00
2013,09,11,09,15,22.00
2013,09,11,09,16,22.10
2013,09,11,09,17,22.10
2013,09,11,09,18,22.20
2013,09,11,09,19,22.20
2013,09,11,09,20,22.30
2013,09,11,09,21,22.30
2013,09,11,09,22,22.40
2013,09,11,09,23,22.50
2013,09,11,09,24,22.50
2013,09,11,09,25,22.60
2013,09,11,09,26,22.60
2013,09,11,09,27,22.60
2013,09,11,09,28,22.60
2013,09,11,09,29,22.60
2013,09,11,09,30,22.60
2013,09,11,09,31,22.60
2013,09,11,09,32,22.60
2013,09,11,09,33,22.60
2013,09,11,09,34,22.60
2013,09,11,09,35,22.60
2013,09,11,09,36,22.60
2013,09,11,09,37,22.60
2013,09,11,09,38,22.60
2013,09,11,09,39,22.60
2013,09,11,09,40,22.50
2013,09,11,09,41,22.50
2013,09,11,09,42,22.40
2013,09,11,09,43,22.40
2013,09,11,09,44,22.50
2013,09,11,09,45,22.50
2013,09,11,09,46,22.60
2013,09,11,09,47,22.70
2013,09,11,09,48,22.80
2013,09,11,09,49,22.80
2013,09,11,09,50,22.80
2013,09,11,09,51,22.90
2013,09,11,09,52,23.00
2013,09,11,09,53,23.00
2013,09,11,09,54,23.10
2013,09,11,09,55,23.10
2013,09,11,09,56,23.20
2013,09,11,09,57,23.20
2013,09,11,09,58,23.20
2013,09,11,09,59,23.20
2013,09,11,10,00,23.20
2013,09,11,10,01,23.20
2013,09,11,10,02,23.20
2013,09,11,10,03,23.10
2013,09,11,10,04,23.20
2013,09,11,10,05,23.20
2013,09,11,10,06,23.10
2013,09,11,10,07,23.10
2013,09,11,10,08,23.10
2013,09,11,10,09,23.00
2013,09,11,10,10,23.00
2013,09,11,10,11,23.00
2013,09,11,10,12,22.90
2013,09,11,10,13,23.00
2013,09,11,10,14,23.00
2013,09,11,10,15,23.00
2013,09,11,10,16,22.90
2013,09,11,10,17,22.90
2013,09,11,10,18,23.00
2013,09,11,10,19,23.00
2013,09,11,10,20,23.10
2013,09,11,10,21,23.10
2013,09,11,10,22,23.10
2013,09,11,10,23,23.10
2013,09,11,10,24,23.20
2013,09,11,10,25,23.20
2013,09,11,10,26,23.20
2013,09,11,10,27,23.30
2013,09,11,10,28,23.30
2013,09,11,10,29,23.30
2013,09,11,10,30,23.20
2013,09,11,10,31,23.10
2013,09,11,10,32,23.10
2013,09,11,10,33,23.10
2013,09,11,10,34,23.00
2013,09,11,10,35,22.90
2013,09,11,10,36,22.80
2013,09,11,10,37,22.80
2013,09,11,10,38,22.70
2013,09,11,10,39,22.70
2013,09,11,10,40,22.70
2013,09,11,10,41,22.60
2013,09,11,10,42,22.50
2013,09,11,10,43,22.50
2013,09,11,10,44,22.40
2013,09,11,10,45,22.40
2013,09,11,10,46,22.40
2013,09,11,10,47,22.40
2013,09,11,10,48,22.50
2013,09,11,10,49,22.60
2013,09,11,10,50,22.60
2013,09,11,10,51,22.70
2013,09,11,10,52,22.80
2013,09,11,10,53,22.90
2013,09,11,10,54,23.10
2013,09,11,10,55,23.20
2013,09,11,10,56,23.30
2013,09,11,10,57,23.40
2013,09,11,10,58,23.40
2013,09,11,10,59,23.40
2013,09,11,11,00,23.30
2013,09,11,11,01,23.30
2013,09,11,11,02,23.30
2013,09,11,11,03,23.30
2013,09,11,11,04,23.20
2013,09,11,11,05,23.10
2013,09,11,11,06,23.10
2013,09,11,11,07,23.00
2013,09,11,11,08,22.90
2013,09,11,11,09,22.80
2013,09,11,11,10,22.80
2013,09,11,11,11,22.70
2013,09,11,11,12,22.60
2013,09,11,11,13,22.60
2013,09,11,11,14,22.70
2013,09,11,11,15,22.80
2013,09,11,11,16,22.90
2013,09,11,11,17,23.00
2013,09,11,11,18,23.00
2013,09,11,11,19,23.00
2013,09,11,11,20,22.90
2013,09,11,11,21,22.80
2013,09,11,11,22,22.70
2013,09,11,11,23,22.70
2013,09,11,11,24,22.70
2013,09,11,11,25,22.70
2013,09,11,11,26,22.70
2013,09,11,11,27,22.80
2013,09,11,11,28,22.80
2013,09,11,11,29,22.80
2013,09,11,11,30,22.90
2013,09,11,11,31,23.00
2013,09,11,11,32,23.10
2013,09,11,11,33,23.30
2013,09,11,11,34,23.40
2013,09,11,11,35,23.50
2013,09,11,11,36,23.60
2013,09,11,11,37,23.80
2013,09,11,11,38,23.90
2013,09,11,11,39,24.00
2013,09,11,11,40,24.10
2013,09,11,11,41,24.20
2013,09,11,11,42,24.30
2013,09,11,11,43,24.40
2013,09,11,11,44,24.40
2013,09,11,11,45,24.40
2013,09,11,11,46,24.40
2013,09,11,11,47,24.40
2013,09,11,11,48,24.30
2013,09,11,11,49,24.30
2013,09,11,11,50,24.20
2013,09,11,11,51,24.20
2013,09,11,11,52,24.00
2013,09,11,11,53,23.90
2013,09,11,11,54,23.80
2013,09,11,11,55,23.70
2013,09,11,11,56,23.70
2013,09,11,11,57,23.70
2013,09,11,11,58,23.60
2013,09,11,11,59,23.60
2013,09,11,12,00,23.60
2013,09,11,12,01,23.50
2013,09,11,12,02,23.40
2013,09,11,12,03,23.30
2013,09,11,12,04,23.20
2013,09,11,12,05,23.10
2013,09,11,12,06,23.10
2013,09,11,12,07,23.10
2013,09,11,12,08,23.10
2013,09,11,12,09,23.10
2013,09,11,12,10,23.00
2013,09,11,12,11,22.90
2013,09,11,12,12,22.80
2013,09,11,12,13,22.70
2013,09,11,12,14,22.70
2013,09,11,12,15,22.70
2013,09,11,12,16,22.70
2013,09,11,12,17,22.80
2013,09,11,12,18,22.80
2013,09,11,12,19,22.90
2013,09,11,12,20,23.00
2013,09,11,12,21,23.10
2013,09,11,12,22,23.30
2013,09,11,12,23,23.50
2013,09,11,12,24,23.60
2013,09,11,12,25,23.70
2013,09,11,12,26,23.70
2013,09,11,12,27,23.60
2013,09,11,12,28,23.70
2013,09,11,12,29,23.70
2013,09,11,12,30,23.70
2013,09,11,12,31,23.60
2013,09,11,12,32,23.60
2013,09,11,12,33,23.50
2013,09,11,12,34,23.40
2013,09,11,12,35,23.40
2013,09,11,12,36,23.50
2013,09,11,12,37,23.50
2013,09,11,12,38,23.70
2013,09,11,12,39,23.80
2013,09,11,12,40,24.00
2013,09,11,12,41,24.10
2013,09,11,12,42,24.10
2013,09,11,12,43,24.20
2013,09,11,12,44,24.30
2013,09,11,12,45,24.30
2013,09,11,12,46,24.30
2013,09,11,12,47,24.30
2013,09,11,12,48,24.40
2013,09,11,12,49,24.50
2013,09,11,12,50,24.50
2013,09,11,12,51,24.60
2013,09,11,12,52,24.60
2013,09,11,12,53,24.70
2013,09,11,12,54,24.70
2013,09,11,12,55,24.60
2013,09,11,12,56,24.60
2013,09,11,12,57,24.60
2013,09,11,12,58,24.70
2013,09,11,12,59,24.70
2013,09,11,13,00,24.70
2013,09,11,13,01,24.70
2013,09,11,13,02,24.70
2013,09,11,13,03,24.80
2013,09,11,13,04,24.80
2013,09,11,13,05,24.80
2013,09,11,13,06,24.80
2013,09,11,13,07,24.80
2013,09,11,13,08,24.70
2013,09,11,13,09,24.60
2013,09,11,13,10,24.50
2013,09,11,13,11,24.40
2013,09,11,13,12,24.20
2013,09,11,13,13,24.10
2013,09,11,13,14,23.90
2013,09,11,13,15,23.80
2013,09,11,13,16,23.80
2013,09,11,13,17,23.90
2013,09,11,13,18,23.90
2013,09,11,13,19,24.10
2013,09,11,13,20,24.20
2013,09,11,13,21,24.30
2013,09,11,13,22,24.50
2013,09,11,13,23,24.80
2013,09,11,13,24,25.10
2013,09,11,13,25,25.30
2013,09,11,13,26,25.50
2013,09,11,13,27,25.60
2013,09,11,13,28,25.60
2013,09,11,13,29,25.60
2013,09,11,13,30,25.50
2013,09,11,13,31,25.40
2013,09,11,13,32,25.40
2013,09,11,13,33,25.30
2013,09,11,13,34,25.30
2013,09,11,13,35,25.30
2013,09,11,13,36,25.30
2013,09,11,13,37,25.30
2013,09,11,13,38,25.30
2013,09,11,13,39,25.30
2013,09,11,13,40,25.20
2013,09,11,13,41,25.20
2013,09,11,13,42,25.20
2013,09,11,13,43,25.20
2013,09,11,13,44,25.20
2013,09,11,13,45,25.10
2013,09,11,13,46,25.10
2013,09,11,13,47,25.10
2013,09,11,13,48,25.20
2013,09,11,13,49,25.40
2013,09,11,13,50,25.60
2013,09,11,13,51,25.70
2013,09,11,13,52,25.80
2013,09,11,13,53,25.90
2013,09,11,13,54,25.90
2013,09,11,13,55,25.90
2013,09,11,13,56,25.90
2013,09,11,13,57,25.90
2013,09,11,13,58,25.90
2013,09,11,13,59,25.90
2013,09,11,14,00,25.90
2013,09,11,14,01,26.00
2013,09,11,14,02,26.10
2013,09,11,14,03,26.10
2013,09,11,14,04,26.20
2013,09,11,14,05,26.20
2013,09,11,14,06,26.20
2013,09,11,14,07,26.20
2013,09,11,14,08,26.20
2013,09,11,14,09,26.20
2013,09,11,14,10,26.20
2013,09,11,14,11,26.30
2013,09,11,14,12,26.30
2013,09,11,14,13,26.30
2013,09,11,14,14,26.30
2013,09,11,14,15,26.30
2013,09,11,14,16,26.30
2013,09,11,14,17,26.30
2013,09,11,14,18,26.30
2013,09,11,14,19,26.30
2013,09,11,14,20,26.30
2013,09,11,14,21,26.30
2013,09,11,14,22,26.30
2013,09,11,14,23,26.30
2013,09,11,14,24,26.40
2013,09,11,14,25,26.40
2013,09,11,14,26,26.40
2013,09,11,14,27,26.40
2013,09,11,14,28,26.40
2013,09,11,14,29,26.30
2013,09,11,14,30,26.20
2013,09,11,14,31,26.20
2013,09,11,14,32,26.20
2013,09,11,14,33,26.20
2013,09,11,14,34,26.30
2013,09,11,14,35,26.40
2013,09,11,14,36,26.50
2013,09,11,14,37,26.60
2013,09,11,14,38,26.70
2013,09,11,14,39,26.80
2013,09,11,14,40,26.80
2013,09,11,14,41,27.00
2013,09,11,14,42,27.10
2013,09,11,14,43,27.10
2013,09,11,14,44,27.10
2013,09,11,14,45,27.20
2013,09,11,14,46,27.20
2013,09,11,14,47,27.30
2013,09,11,14,48,27.30
2013,09,11,14,49,27.30
2013,09,11,14,50,27.40
2013,09,11,14,51,27.40
2013,09,11,14,52,27.40
2013,09,11,14,53,27.30
2013,09,11,14,54,27.20
2013,09,11,14,55,27.10
2013,09,11,14,56,27.00
2013,09,11,14,57,26.80
2013,09,11,14,58,26.70
2013,09,11,14,59,26.60
2013,09,11,15,00,26.50
2013,09,11,15,01,26.50
2013,09,11,15,02,26.50
2013,09,11,15,03,26.60
2013,09,11,15,04,26.60
2013,09,11,15,05,26.70
2013,09,11,15,06,26.80
2013,09,11,15,07,26.80
2013,09,11,15,08,26.70
2013,09,11,15,09,26.80
2013,09,11,15,10,26.90
2013,09,11,15,11,27.10
2013,09,11,15,12,27.20
2013,09,11,15,13,27.30
2013,09,11,15,14,27.30
2013,09,11,15,15,27.30
2013,09,11,15,16,27.30
2013,09,11,15,17,27.30
2013,09,11,15,18,27.30
2013,09,11,15,19,27.20
2013,09,11,15,20,27.20
2013,09,11,15,21,27.20
2013,09,11,15,22,27.20
2013,09,11,15,23,27.20
2013,09,11,15,24,27.20
2013,09,11,15,25,27.20
2013,09,11,15,26,27.30
2013,09,11,15,27,27.30
2013,09,11,15,28,27.30
2013,09,11,15,29,27.30
2013,09,11,15,30,27.30
2013,09,11,15,31,27.30
2013,09,11,15,32,27.40
2013,09,11,15,33,27.40
2013,09,11,15,34,27.40
2013,09,11,15,35,27.30
2013,09,11,15,36,27.20
2013,09,11,15,37,27.00
2013,09,11,15,38,26.90
2013,09,11,15,39,26.90
2013,09,11,15,40,26.90
2013,09,11,15,41,26.90
2013,09,11,15,42,26.90
2013,09,11,15,43,26.90
2013,09,11,15,44,27.00
2013,09,11,15,45,27.00
2013,09,11,15,46,27.00
2013,09,11,15,47,26.90
2013,09,11,15,48,26.90
2013,09,11,15,49,26.90
2013,09,11,15,50,26.90
2013,09,11,15,51,27.00
2013,09,11,15,52,27.00
2013,09,11,15,53,27.20
2013,09,11,15,54,27.30
2013,09,11,15,55,27.40
2013,09,11,15,56,27.50
2013,09,11,15,57,27.60
2013,09,11,15,58,27.70
2013,09,11,15,59,27.80
2013,09,11,16,00,28.00
2013,09,11,16,01,28.20
2013,09,11,16,02,28.20
2013,09,11,16,03,28.20
2013,09,11,16,04,28.10
2013,09,11,16,05,28.00
2013,09,11,16,06,27.90
2013,09,11,16,07,27.80
2013,09,11,16,08,27.80
2013,09,11,16,09,27.70
2013,09,11,16,10,27.60
2013,09,11,16,11,27.50
2013,09,11,16,12,27.40
2013,09,11,16,13,27.40
2013,09,11,16,14,27.30
2013,09,11,16,15,27.30
2013,09,11,16,16,27.30
2013,09,11,16,17,27.40
2013,09,11,16,18,27.50
2013,09,11,16,19,27.60
2013,09,11,16,20,27.70
2013,09,11,16,21,27.80
2013,09,11,16,22,27.80
2013,09,11,16,23,27.80
2013,09,11,16,24,27.80
2013,09,11,16,25,27.70
2013,09,11,16,26,27.60
2013,09,11,16,27,27.60
2013,09,11,16,28,27.60
2013,09,11,16,29,27.60
2013,09,11,16,30,27.50
2013,09,11,16,31,27.40
2013,09,11,16,32,27.30
2013,09,11,16,33,27.20
2013,09,11,16,34,27.20
2013,09,11,16,35,27.00
2013,09,11,16,36,26.70
2013,09,11,16,37,26.50
2013,09,11,16,38,26.30
2013,09,11,16,39,26.10
2013,09,11,16,40,26.00
2013,09,11,16,41,25.90
2013,09,11,16,42,25.80
2013,09,11,16,43,25.70
2013,09,11,16,44,25.60
2013,09,11,16,45,25.50
2013,09,11,16,46,25.40
2013,09,11,16,47,25.40
2013,09,11,16,48,25.40
2013,09,11,16,49,25.30
2013,09,11,16,50,25.30
2013,09,11,16,51,25.30
2013,09,11,16,52,25.30
2013,09,11,16,53,25.30
2013,09,11,16,54,25.20
2013,09,11,16,55,25.20
2013,09,11,16,56,25.20
2013,09,11,16,57,25.20
2013,09,11,16,58,25.20
2013,09,11,16,59,25.20
2013,09,11,17,00,25.20
2013,09,11,17,01,25.20
2013,09,11,17,02,25.20
2013,09,11,17,03,25.20
2013,09,11,17,04,25.30
2013,09,11,17,05,25.40
2013,09,11,17,06,25.50
2013,09,11,17,07,25.70
2013,09,11,17,08,25.80
2013,09,11,17,09,25.90
2013,09,11,17,10,25.90
2013,09,11,17,11,25.90
2013,09,11,17,12,26.00
2013,09,11,17,13,26.20
2013,09,11,17,14,26.20
2013,09,11,17,15,26.10
2013,09,11,17,16,26.00
2013,09,11,17,17,25.90
2013,09,11,17,18,25.90
2013,09,11,17,19,25.90